Time,TemperatureF,DewpointF,PressureIn,WindDirection,WindDirectionDegrees,WindSpeedMPH,WindSpeedGustMPH,Humidity,HourlyPrecipIn,Conditions,Clouds,dailyrainin,SoftwareType,DateUTC
2013-02-03 00:00:00,10.0,3.7,29.99,SSW,202,3.1,5.0,65,0.00,NA,NA,0.00,meteo_script,2013-02-03 06:00:00,
2013-02-03 00:30:00,10.1,3.9,29.98,SSW,203,2.0,3.0,65,0.00,NA,NA,0.00,meteo_script,2013-02-03 06:30:00,
2013-02-03 01:00:00,10.0,3.7,29.98,SSW,203,0.8,2.0,65,0.00,NA,NA,0.00,meteo_script,2013-02-03 07:00:00,
2013-02-03 01:30:00,9.7,3.5,29.97,SSW,203,0.7,2.0,65,0.00,NA,NA,0.00,meteo_script,2013-02-03 07:30:00,
2013-02-03 02:00:00,9.9,3.9,29.96,SSW,203,1.4,2.0,66,0.00,NA,NA,0.00,meteo_script,2013-02-03 08:00:00,
2013-02-03 02:30:00,10.0,3.9,29.95,SSW,202,1.1,2.0,66,0.00,NA,NA,0.00,meteo_script,2013-02-03 08:30:00,
2013-02-03 03:00:00,10.2,4.3,29.94,SSW,203,0.0,1.0,66,0.00,NA,NA,0.00,meteo_script,2013-02-03 09:00:00,
2013-02-03 03:30:00,10.4,4.5,29.94,SSW,203,1.2,3.0,67,0.00,NA,NA,0.00,meteo_script,2013-02-03 09:30:00,
2013-02-03 04:00:00,10.7,4.8,29.92,SSW,203,0.3,1.0,67,0.00,NA,NA,0.00,meteo_script,2013-02-03 10:00:00,
2013-02-03 04:30:00,10.7,5.0,29.94,SSW,203,0.6,2.0,67,0.00,NA,NA,0.00,meteo_script,2013-02-03 10:30:00,
2013-02-03 05:00:00,10.9,5.2,29.94,WSW,243,1.9,3.0,68,0.00,NA,NA,0.00,meteo_script,2013-02-03 11:00:00,
2013-02-03 05:30:00,11.2,5.5,29.94,WSW,254,0.7,2.0,68,0.00,NA,NA,0.00,meteo_script,2013-02-03 11:30:00,
2013-02-03 06:00:00,11.7,6.2,29.94,West,259,0.2,2.0,69,0.00,NA,NA,0.00,meteo_script,2013-02-03 12:00:00,
2013-02-03 06:30:00,12.3,6.8,29.94,WSW,258,2.2,3.0,69,0.00,NA,NA,0.00,meteo_script,2013-02-03 12:30:00,
2013-02-03 07:00:00,12.1,6.9,29.95,West,264,4.4,9.0,70,0.00,NA,NA,0.00,meteo_script,2013-02-03 13:00:00,
2013-02-03 07:30:00,12.6,7.7,29.96,NW,313,2.5,5.0,72,0.00,NA,NA,0.00,meteo_script,2013-02-03 13:30:00,
2013-02-03 08:00:00,12.8,7.5,29.96,NW,326,2.5,3.0,70,0.00,NA,NA,0.00,meteo_script,2013-02-03 14:00:00,
2013-02-03 08:30:00,13.5,8.0,29.97,NW,317,2.9,6.0,69,0.00,NA,NA,0.00,meteo_script,2013-02-03 14:30:00,
2013-02-03 09:00:00,14.6,8.5,29.98,West,278,3.5,6.0,67,0.00,NA,NA,0.00,meteo_script,2013-02-03 15:00:00,
2013-02-03 09:30:00,15.5,9.0,29.98,WNW,298,3.4,5.0,65,0.00,NA,NA,0.00,meteo_script,2013-02-03 15:30:00,
2013-02-03 10:00:00,16.6,9.2,29.98,NW,316,3.5,6.0,61,0.00,NA,NA,0.00,meteo_script,2013-02-03 16:00:00,
2013-02-03 10:30:00,18.1,9.9,30.00,NW,324,3.2,4.0,58,0.00,NA,NA,0.00,meteo_script,2013-02-03 16:30:00,
2013-02-03 11:00:00,18.7,9.7,30.01,WNW,300,4.4,11.0,56,0.00,NA,NA,0.00,meteo_script,2013-02-03 17:00:00,
2013-02-03 11:30:00,19.3,10.1,30.00,West,277,7.1,12.0,55,0.00,NA,NA,0.00,meteo_script,2013-02-03 17:30:00,
2013-02-03 12:00:00,20.1,10.2,30.00,NNW,335,2.2,4.0,53,0.00,NA,NA,0.00,meteo_script,2013-02-03 18:00:00,
2013-02-03 12:30:00,21.4,11.0,29.99,WNW,294,3.1,6.0,51,0.00,NA,NA,0.00,meteo_script,2013-02-03 18:30:00,
2013-02-03 13:00:00,21.8,11.2,29.99,West,277,6.3,9.0,51,0.00,NA,NA,0.00,meteo_script,2013-02-03 19:00:00,
2013-02-03 13:30:00,21.8,11.2,29.99,West,281,4.7,7.0,51,0.00,NA,NA,0.00,meteo_script,2013-02-03 19:30:00,
2013-02-03 14:00:00,22.5,11.5,29.99,WSW,256,4.8,7.0,50,0.00,NA,NA,0.00,meteo_script,2013-02-03 20:00:00,
2013-02-03 14:30:00,22.6,11.6,29.99,WSW,247,8.0,15.0,50,0.00,NA,NA,0.00,meteo_script,2013-02-03 20:30:00,
2013-02-03 15:00:00,21.5,11.2,30.00,WSW,251,4.7,7.0,52,0.00,NA,NA,0.00,meteo_script,2013-02-03 21:00:00,
2013-02-03 15:30:00,20.8,10.6,29.99,WSW,255,6.6,9.0,52,0.00,NA,NA,0.00,meteo_script,2013-02-03 21:30:00,
2013-02-03 16:00:00,19.7,10.4,29.99,WSW,255,3.1,5.0,55,0.00,NA,NA,0.00,meteo_script,2013-02-03 22:00:00,
2013-02-03 16:30:00,18.3,9.6,29.99,WSW,250,6.2,11.0,57,0.00,NA,NA,0.00,meteo_script,2013-02-03 22:30:00,
2013-02-03 17:00:00,17.2,8.8,29.99,WSW,257,3.6,6.0,57,0.00,NA,NA,0.00,meteo_script,2013-02-03 23:00:00,
2013-02-03 17:30:00,16.1,7.9,29.99,WSW,258,3.1,4.0,58,0.00,NA,NA,0.00,meteo_script,2013-02-03 23:30:00,
2013-02-03 18:00:00,16.1,8.8,29.99,West,260,5.0,8.0,61,0.00,NA,NA,0.00,meteo_script,2013-02-04 00:00:00,
2013-02-03 18:30:00,16.7,9.6,30.00,West,263,3.7,7.0,63,0.00,NA,NA,0.00,meteo_script,2013-02-04 00:30:00,
2013-02-03 19:00:00,17.3,9.9,30.00,WSW,257,2.7,4.0,62,0.00,NA,NA,0.00,meteo_script,2013-02-04 01:00:00,
2013-02-03 19:30:00,16.7,9.2,30.00,West,273,3.8,6.0,61,0.00,NA,NA,0.00,meteo_script,2013-02-04 01:30:00,
2013-02-03 20:00:00,16.4,9.1,30.00,WNW,287,2.3,4.0,62,0.00,NA,NA,0.00,meteo_script,2013-02-04 02:00:00,
2013-02-03 20:30:00,16.3,9.3,30.01,WSW,258,3.3,6.0,63,0.00,NA,NA,0.00,meteo_script,2013-02-04 02:30:00,
2013-02-03 21:00:00,17.7,11.5,30.02,West,261,2.7,5.0,67,0.00,NA,NA,0.00,meteo_script,2013-02-04 03:00:00,
2013-02-03 21:30:00,17.7,11.3,30.02,WSW,249,3.3,5.0,66,0.00,NA,NA,0.00,meteo_script,2013-02-04 03:30:00,
2013-02-03 22:00:00,17.7,11.7,30.01,WSW,249,2.9,4.0,68,0.00,NA,NA,0.00,meteo_script,2013-02-04 04:00:00,
2013-02-03 22:30:00,17.9,12.4,30.02,WSW,246,1.3,3.0,70,0.00,NA,NA,0.00,meteo_script,2013-02-04 04:30:00,
2013-02-03 23:00:00,18.2,12.7,30.01,WSW,244,0.3,2.0,70,0.00,NA,NA,0.00,meteo_script,2013-02-04 05:00:00,
2013-02-03 23:30:00,18.4,12.8,29.99,North,0,0.0,0.0,70,0.00,NA,NA,0.00,meteo_script,2013-02-04 05:30:00,